Regional Weather Roundup
Issued by NWS

Home | Current Version | Previous Version | Text Only | Print | Product List | Glossary On
Versions: 1 2 3 4 5 6 7 8 9 10 11 12 13 14 15 16 17 18 19 20 21 22 23 24 25 26 27 28 29 30 31 32 33 34 35 36 37 38 39 40 41 42 43 44 45 46 47 48 49 50
000
ASUS42 KFFC 130210
RWRGA
WEATHER ROUNDUP FOR GEORGIA
NATIONAL WEATHER SERVICE PEACHTREE CITY GA
900 PM EST TUE DEC 12 2017

NOTE: "FAIR" INDICATES FEW OR NO CLOUDS BELOW 12,000 FEET WITH NO
SIGNIFICANT WEATHER AND/OR OBSTRUCTIONS TO VISIBILITY.

* = USE WITH CAUTION. THE STATIONS MARKED WITH AN ASTERISK MAY NOT
REPORT WEATHER SUCH AS PRECIPITATION, FOG, OR THUNDER AND ARE NOT
QUALITY CONTROLLED BY NWS.

THE REMARK "TC" DENOTES TEMPERATURE READING IN DEGREES CELSIUS.

GAZ001>058-130300-
NORTH GEORGIA

CITY           SKY/WX    TMP DP  RH WIND       PRES   REMARKS
ATLANTA        CLEAR     41  24  51 NW14      29.96R
ATHENS         CLEAR     40  21  46 NW13      29.92R WCI  32
CHAMBLEE       CLEAR     38  23  55 NW12      29.96R WCI  30
PEACHTREE CITY CLEAR     42  27  55 W5        29.99R
ROME           CLEAR     40  18  41 NW9       30.03R WCI  34
WEST ATLANTA   CLEAR     40  23  50 NW8G16    29.98R WCI  34
GAINESVILLE    CLEAR     36  20  52 NW15G24   29.93S WCI  27
CARTERSVILLE   CLEAR     38  23  55 MISG      30.02R


CITY           SKY/WX    TMP DP  RH WIND       PRES   REMARKS
DALTON*        CLEAR     34  23  64 N7        30.05R WCI  28
LAWRENCEVILLE* CLEAR     37  21  52 NW10G17   29.94R WCI  30
MARIETTA       CLEAR     38  23  54 NW14G20   29.96R WCI  30
KENNESAW*      CLEAR     38  24  57 NW6       29.98R WCI  33
CANTON*        CLEAR     37  23  56 NW14      29.97R WCI  29
$$

GAZ059>098-102>109-130300-
CENTRAL GEORGIA

CITY           SKY/WX    TMP DP  RH WIND       PRES   REMARKS
AUGUSTA-BUSH   CLEAR     46  27  47 W18G25    29.91R
AUGUSTA-DANIEL CLEAR     45  27  49 W9G18     29.91R
COLUMBUS       CLEAR     46  30  53 NW7       30.02R
MACON          CLEAR     41  31  67 W7        29.98R
ROBINS AFB     CLEAR     44  31  59 W6        29.97R


CITY           SKY/WX    TMP DP  RH WIND       PRES   REMARKS
LAGRANGE*      CLEAR     40  31  69 NW8       30.02R
SYLVANIA*      CLEAR     47  33  59 NW13      29.91S
MILLEDGEVILLE* CLEAR     43  32  65 W6        29.96R
$$

GAZ099>101-110>166-130300-
SOUTH GEORGIA

CITY           SKY/WX    TMP DP  RH WIND       PRES   REMARKS
SAVANNAH       CLEAR     48  32  53 NW12      29.92
VALDOSTA       CLEAR     42  34  73 VRB3      30.01R
ALMA           CLEAR     49  32  52 NW8       29.97R
ST SIMONS      CLEAR     51  36  56 W8G17     29.94R
FT STEWART     CLEAR     49  29  46 W13       29.92R
ALBANY         CLEAR     44  34  67 W5        30.04R
HUNTER AFB     CLEAR     49  31  49 W13       29.88R
MOODY AFB      CLEAR     47  34  61 W8        29.99R
BRUNSWICK      CLEAR     50  32  50 W10G16    29.95R


CITY           SKY/WX    TMP DP  RH WIND       PRES   REMARKS
BAINBRIDGE*    CLEAR     46  39  76 W5        30.05R
MOULTRIE*      CLEAR     46  34  61 CALM      30.02S
VIDALIA*       CLEAR     46  34  61 W5        29.95S
WAYCROSS*      CLEAR     49  31  51 NW9       29.98R
DOUGLAS*       CLEAR     46  32  57 NW3       30.00S
$$




USA.gov is the U.S. government's official web portal to all federal, state and local government web resources and services.